DW6866 Weather Reports


time (UTC)temp
C
wind
direction
speed
KPH
gust
KPH
rain 1hr
cm
rain 24hr
cm
rain mn
cm
humidity
%
barometer
mb
20260505140121 11 23 0.0 3.2 0.00 0.00 0.00 85 1014.9
20260505130119 11 150 0.0 1.6 0.00 0.00 0.00 86 1014.5
20260505124629 11 168 0.0 1.6 0.00 0.00 0.00 87 1014.3
20260505123141 11 221 0.0 6.4 0.00 0.00 0.00 86 1014.2
20260505121650 11 240 0.0 4.8 0.00 0.00 0.00 87 1014.1
20260505120120 11 131 0.0 0.0 0.00 0.00 0.00 87 1014.0
20260505114629 11 147 0.0 0.0 0.00 0.00 0.00 87 1014.0
20260505113120 11 138 0.0 0.0 0.00 0.00 0.00 87 1013.9
20260505111627 11 134 1.6 3.2 0.00 0.00 0.00 87 1014.0
20260505110119 11 172 0.0 3.2 0.00 0.00 0.00 87 1013.8
20260505101628 11 147 0.0 6.4 0.00 0.00 0.00 88 1013.5
20260505100137 11 153 0.0 3.2 0.00 0.00 0.00 88 1013.4
20260505094624 11 138 0.0 1.6 0.00 0.00 0.00 88 1013.3
20260505093136 11 160 0.0 4.8 0.00 0.00 0.00 88 1013.2
20260505091618 11 120 0.0 0.0 0.00 0.00 0.00 89 1013.1
20260505090154 11 162 0.0 0.0 0.00 0.00 0.00 89 1013.1
20260505083129 10 320 0.0 0.0 0.00 0.00 0.00 90 1012.9
20260505080116 10 320 0.0 0.0 0.00 0.00 0.00 89 1012.8
20260505074637 10 320 0.0 0.0 0.00 0.00 0.00 89 1012.7
20260505073123 11 320 0.0 0.0 0.00 0.00 0.00 89 1012.5
20260505071628 11 320 0.0 0.0 0.00 0.00 0.00 88 1012.3
20260505070121 11 320 0.0 0.0 0.00 0.00 0.00 88 1012.2
20260505064632 11 320 0.0 0.0 0.00 0.00 0.00 88 1012.2
20260505063120 11 326 0.0 0.0 0.00 0.00 0.00 87 1012.0
20260505061625 12 252 0.0 0.0 0.00 0.00 0.00 86 1011.8
20260505060116 12 282 0.0 0.0 0.00 0.00 0.00 85 1011.7
20260505054624 12 220 0.0 0.0 0.00 0.00 0.00 85 1011.4
20260505053136 12 220 0.0 0.0 0.00 0.00 0.00 83 1011.4
20260505051646 13 220 0.0 0.0 0.00 0.00 0.00 82 1011.3
20260505050138 13 278 0.0 6.4 0.00 0.00 0.00 81 1011.1
20260505041625 15 255 0.0 4.8 0.00 0.00 0.00 76 1010.7
20260505040115 15 233 1.6 12.9 0.00 0.00 0.00 73 1010.5
20260505034627 16 137 0.0 8.0 0.00 0.00 0.00 71 1010.3
20260505031625 17 204 0.0 4.8 0.00 0.00 0.00 66 1009.9
20260505030135 18 240 3.2 12.9 0.00 0.00 0.00 63 1009.7
20260505024640 19 297 3.2 11.3 0.00 0.00 0.00 62 1009.5
20260505023201 20 295 0.0 4.8 0.00 0.00 0.00 60 1009.4
20260505021623 21 328 1.6 4.8 0.00 0.00 0.00 57 1009.2
20260505020118 21 268 1.6 8.0 0.00 0.00 0.00 54 1009.3
20260505014626 22 256 1.6 11.3 0.00 0.00 0.00 51 1009.3
20260505013140 23 309 3.2 9.7 0.00 0.00 0.00 50 1009.2
20260505011643 23 351 4.8 14.5 0.00 0.00 0.00 50 1009.3
20260505010122 23 347 11.3 17.7 0.00 0.00 0.00 50 1009.3
20260504221633 25 214 0.0 11.3 0.00 0.00 0.00 47 1009.9
20260504220114 25 306 0.0 9.7 0.00 0.00 0.00 47 1010.0
20260504214620 25 290 0.0 11.3 0.00 0.00 0.00 50 1010.1
20260504213125 25 178 0.0 9.7 0.00 0.00 0.00 47 1010.2
20260504211649 25 300 0.0 11.3 0.00 0.00 0.00 47 1010.2
20260504210117 25 261 1.6 11.3 0.00 0.00 0.00 45 1010.2
20260504204615 25 231 0.0 3.2 0.00 0.00 0.00 44 1010.3
20260504203119 24 302 1.6 8.0 0.00 0.00 0.00 47 1010.5
20260504201625 25 314 0.0 0.0 0.00 0.00 0.00 47 1010.6
20260504200150 24 296 0.0 0.0 0.00 0.00 0.00 48 1010.7
20260504194629 23 217 0.0 11.3 0.00 0.00 0.00 48 1010.7
20260504193114 23 314 1.6 11.3 0.00 0.00 0.00 49 1010.8
20260504191614 23 304 0.0 6.4 0.00 0.00 0.00 49 1010.9
20260504190123 22 359 0.0 8.0 0.00 0.00 0.00 51 1011.1
20260504184625 21 308 4.8 12.9 0.00 0.00 0.00 51 1011.2
20260504183150 21 287 1.6 9.7 0.00 0.00 0.00 52 1011.4
20260504181614 21 321 0.0 8.0 0.00 0.00 0.00 51 1011.3
20260504180118 21 335 0.0 9.7 0.00 0.00 0.00 51 1011.3
20260504174622 20 148 0.0 3.2 0.00 0.00 0.00 52 1011.4
20260504173126 20 256 3.2 9.7 0.00 0.00 0.00 55 1011.4
20260504171627 20 216 0.0 0.0 0.00 0.00 0.00 58 1011.4
20260504170116 19 287 0.0 8.0 0.00 0.00 0.00 61 1011.4
20260504160125 17 345 0.0 0.0 0.00 0.00 0.00 65 1011.1
20260504150125 15 231 0.0 1.6 0.00 0.00 0.00 74 1010.6